Flag for Germany Weather past 2 weeks in Soest, North Rhine-Westphalia, Germany

Now
66 °F

Passing clouds.


Feels Like: 66 °F
Forecast: 49 / 72 °F
Wind: 6 mph from West

Location: Dortmund / Wickede

Current Time: Oct 1, 2014 at 6:34:22 PM

Latest Report: Oct 1, 2014 at 5:50 PM


Visibility: N/A

Pressure: 30.33 "Hg

Humidity: 64%

Dew point: 54 °F

Location of SoestLocation

Historic Weather in Soest — Graph

°F

Soest temperature yesterday

Maximum temperature yesterday: 70 °F (at 2:50 PM)
Minimum temperature yesterday: 55 °F (at 8:50 PM)
Average temperature yesterday: 62 °F

Past Weeks' High & Low Weather Summary

 TemperatureHumidityPressure
High77 °F (Sep 17, 2:50 PM)100% (Sep 21, 10:20 AM)30.39 "Hg (Sep 21, 10:20 AM)
Low46 °F (Sep 23, 5:20 AM)39% (Sep 17, 3:20 PM)29.83 "Hg (Sep 19, 5:20 AM)
Average61 °F78%30.08 "Hg
* Reported Sep 16 5:20 PM — Oct 1 5:20 PM, Soest, Weather by CustomWeather, © 2014

Note: Actual official high and low records may vary slightly from our data, if they occured in-between our weather recording intervals... More about our weather records

Advertising

Soest weather history for previous 24 hours

 ConditionsComfort  
Time TempWeatherWind HumidityBarometerVisibility
5:20 PM
Oct 1
64 °FSunny.7 mph64%30.30 "Hg10 mi
4:50 PM66 °FPassing clouds.6 mph64%30.30 "HgN/A
4:20 PM66 °FPassing clouds.8 mph60%30.30 "HgN/A
3:50 PM66 °FPassing clouds.8 mph64%30.30 "HgN/A
3:20 PM66 °FScattered clouds.7 mph64%30.30 "HgN/A
2:50 PM68 °FScattered clouds.10 mph56%30.30 "HgN/A
2:20 PM68 °FScattered clouds.12 mph56%30.33 "HgN/A
1:50 PM68 °FPassing clouds.10 mph60%30.33 "HgN/A
1:20 PM68 °FPassing clouds.12 mph60%30.33 "HgN/A
12:50 PM66 °FPassing clouds.8 mph64%30.33 "HgN/A
12:20 PM66 °FPassing clouds.8 mph64%30.33 "HgN/A
11:50 AM66 °FScattered clouds.8 mph68%30.33 "HgN/A
11:20 AM63 °FScattered clouds.8 mph83%30.33 "HgN/A
10:50 AM63 °FPassing clouds.7 mph77%30.33 "Hg6 mi
10:20 AM63 °FClear.8 mph77%30.30 "Hg5 mi
9:50 AM61 °FPassing clouds.7 mph83%30.30 "Hg4 mi
9:20 AM59 °FScattered clouds.7 mph82%30.30 "HgN/A
8:50 AM55 °FClear.9 mph94%30.30 "Hg4 mi
8:20 AM55 °FPassing clouds.8 mph88%30.30 "Hg4 mi
7:50 AM55 °FLight rain. Passing clouds.8 mph94%30.30 "Hg4 mi
7:20 AM55 °FLight rain. Passing clouds.7 mph88%30.30 "Hg4 mi
6:50 AM55 °FPassing clouds.7 mph88%30.27 "Hg5 mi
6:20 AM57 °FLight rain. Passing clouds.6 mph82%30.30 "Hg4 mi
5:50 AM55 °FPassing clouds.7 mph88%30.30 "Hg6 mi
5:20 AM55 °FClear.8 mph88%30.30 "Hg10 mi
10:50 PM
Sep 30
55 °FClear.8 mph88%30.30 "Hg10 mi
10:20 PM57 °FClear.7 mph88%30.30 "Hg10 mi
9:50 PM57 °FClear.7 mph88%30.30 "Hg10 mi
9:20 PM55 °FClear.6 mph88%30.30 "Hg10 mi
8:50 PM55 °FClear.5 mph88%30.30 "Hg10 mi
8:20 PM57 °FClear.3 mph88%30.30 "Hg10 mi
7:50 PM57 °FSunny.2 mph82%30.30 "Hg10 mi
7:20 PM61 °FSunny.2 mph77%30.27 "Hg10 mi
6:50 PM63 °FScattered clouds.2 mph73%30.27 "HgN/A
6:20 PM63 °FPartly sunny.3 mph77%30.27 "HgN/A
Weather by CustomWeather, © 2014

See weather overviewHow to use our weather pages